Flag for Germany Weather past 2 weeks in Coburg, Bavaria, Germany

Now
56 °F

Sunny.


Feels Like: 56 °F
Forecast: 36 / 58 °F
Wind: 1 mph from Northwest

Location: Bamberg

Current Time: Sep 23, 2014 at 6:38:31 PM

Latest Report: Sep 23, 2014 at 6:00 PM


Visibility: 31 mi

Pressure: 30.11 "Hg

Humidity: 58%

Dew point: 41 °F

Location of CoburgLocation

Historic Weather in Coburg — Graph

°F

Coburg temperature yesterday

Maximum temperature yesterday: 57 °F (at 3:00 PM)
Minimum temperature yesterday: 47 °F (at 4:00 AM)
Average temperature yesterday: 51 °F

Past Weeks' High & Low Weather Summary

 TemperatureHumidityPressure
High76 °F (Sep 18, 4:00 PM)100% (Sep 11, 4:00 AM)30.20 "Hg (Sep 11, 4:00 AM)
Low43 °F (Sep 11, 5:00 AM)47% (Sep 9, 5:00 PM)29.87 "Hg (Sep 18, 5:00 PM)
Average59 °F89%30.01 "Hg
* Reported Sep 8 5:00 PM — Sep 23 5:00 PM, Coburg, Weather by CustomWeather, © 2014

Note: Actual official high and low records may vary slightly from our data, if they occured in-between our weather recording intervals... More about our weather records

Advertising

Coburg weather history for previous 24 hours

 ConditionsComfort  
Time TempWeatherWind HumidityBarometerVisibility
5:00 PM
Sep 23
58 °FOvercast.2 mph57%30.13 "Hg25 mi
4:00 PM58 °FOvercast.2 mph58%30.15 "Hg31 mi
3:00 PM58 °FPartly sunny.2 mph55%30.16 "Hg31 mi
2:00 PM56 °FOvercast.2 mph60%30.18 "Hg37 mi
1:00 PM57 °FPartly sunny.2 mph59%30.18 "Hg31 mi
12:00 PM54 °FOvercast.3 mph69%30.19 "Hg25 mi
11:00 AM52 °FOvercast.1 mph78%30.20 "Hg19 mi
10:00 AM50 °FOvercast.1 mph90%30.20 "Hg14 mi
9:00 AM48 °FOvercast.1 mph97%30.19 "Hg10 mi
8:00 AM47 °FOvercast.1 mph100%30.17 "Hg8 mi
7:00 AM47 °FOvercast.1 mph99%30.16 "Hg7 mi
6:00 AM47 °FOvercast.1 mph99%30.14 "Hg8 mi
5:00 AM46 °FOvercast.No wind98%30.13 "Hg9 mi
4:00 AM47 °FOvercast.1 mph98%30.12 "Hg9 mi
3:00 AM47 °FOvercast.1 mph95%30.12 "Hg16 mi
2:00 AM48 °FOvercast.1 mph90%30.12 "Hg15 mi
1:00 AM49 °FOvercast.2 mph90%30.12 "Hg16 mi
12:00 AM49 °FOvercast.2 mph86%30.11 "Hg19 mi
11:00 PM
Sep 22
49 °FOvercast.2 mph87%30.11 "Hg22 mi
10:00 PM49 °FOvercast.1 mph85%30.11 "Hg22 mi
9:00 PM48 °FOvercast.1 mph88%30.10 "Hg19 mi
8:00 PM48 °FPassing clouds.2 mph89%30.09 "Hg25 mi
7:00 PM50 °FOvercast.3 mph81%30.06 "Hg34 mi
6:00 PM51 °FPassing clouds.3 mph81%30.03 "Hg34 mi
Weather by CustomWeather, © 2014

See weather overviewHow to use our weather pages